Location: Newark
(15.4608°S, 41.1635°W)
Time: 02:13:20
(UTC+00:00)

XW-2B - Pass Details

Date: 23 February 2020
Orbit: 509 x 526 km, 97.5° (Epoch: 06 April)

Event Time Altitude Azimuth Distance (km) Brightness Sun altitude
Rises 08:05:15 0° 15° (NNE) 2,633 ? -9.8°
Reaches altitude 10° 08:07:20 10° 17° (NNE) 1,754 ? -9.3°
Maximum altitude 08:11:06 73° 102° (ESE) 554 ? -8.5°
Drops below altitude 10° 08:14:56 10° 186° (S) 1,779 ? -7.6°
Sets 08:17:03 0° 188° (S) 2,675 ? -7.1°
